Other Public Products
Issued by NWS Grand Forks, ND

Home | Current Version | Previous Version | Graphics & Text | Print | Product List | Glossary On
Versions: 1 2 3 4 5 6 7 8 9 10 11 12 13 14 15 16 17 18 19 20 21 22 23 24 25 26 27 28 29 30 31 32 33 34 35 36 37 38 39 40 41 42 43 44 45 46 47 48 49 50
000
FPUS83 KFGF 050831
OPUFGF
PRAIRIE TO PINES WEATHER ROUNDUP
NATIONAL WEATHER SERVICE EASTERN NORTH DAKOTA/GRAND FORKS ND
300 AM CDT SUN JUL 05 2015

 **SATELLITE DATA USED TO AUGMENT SKY COVER AT AUTOMATED STATIONS**
 *****  WEATHER ACROSS EASTERN NORTH DAKOTA  *****

CITY           SKY/WX    TMP DP  RH WIND       PRES   REMARKS
GRAND FORKS    CLOUDY    67  65  93 E16G22    29.76R
GRAND FORKS AF CLOUDY    68  66  94 E13       29.76R
GRAND CITY NWS   N/A     66 N/A N/A SE16        N/A
BUXTON         NOT AVBL
DEVILS LAKE    PTCLDY    66  61  82 SE5       29.73F
FARGO          CLOUDY    73  65  75 SE13      29.77S
WAHPETON ARPT  PTSUNNY   68  63  83 SE9       29.79F
$$

 *****  WEATHER ACROSS CENTRAL AND WESTERN NORTH DAKOTA  *****

CITY           SKY/WX    TMP DP  RH WIND       PRES   REMARKS
JAMESTOWN      PTCLDY    71  66  84 S12       29.74F
BISMARCK       CLEAR     69  67  93 E8        29.72F
MINOT          MOCLDY    61  59  93 NW7       29.76F FOG
MINOT AFB      CLEAR     59  59 100 NW6       29.76F
GARRISON         N/A     66  61  84 NE8       29.74F
WILLISTON      MOCLDY    66  62  87 N9        29.78S
DICKINSON      CLEAR     64  58  80 N7        29.74F
HETTINGER      PTCLDY    60  59  96 CALM      29.75F FOG
$$

 *****  OTHER OBSERVATIONS NORTHEAST NORTH DAKOTA  *****

CITY           SKY/WX    TMP DP  RH WIND       PRES   REMARKS
WALHALLA       FAIR      64  64 100 MISG      29.75F
LANGDON        PTSUNNY   64  64 100 E6        29.79F
CAVALIER       FAIR      64  64 100 SW6       29.76F
GRAFTON        FAIR      66  66 100 SE10      29.76F
CANDO          PTSUNNY   63  61  94 N7        29.76F
FORT TOTTEN    NOT AVBL
ROLLA          CLOUDY    59  59 100 N6        29.80F
RUGBY          NOT AVBL
 ***** THE ABOVE OBSERVATIONS ARE NON NWS ARE NOT QUALITY
        CONTROLLED AND MAY MIS-REPORT RAIN FOR SNOW...
$$

 *****  OTHER OBSERVATIONS SOUTHEAST NORTH DAKOTA *****

CITY           SKY/WX    TMP DP  RH WIND       PRES   REMARKS
COOPERSTOWN    NOT AVBL
VALLEY CITY    FAIR      70  70 100 S10       29.75F
OAKES            N/A     66  66 100 SE6       29.75R
GWINNER          N/A     72  70  94 SE5       29.76F
SHEYENNE NWR     N/A     70  66  88 SE5       29.95
BUFFALO        NOT AVBL
WYNDMERE       NOT AVBL
 ***** THE ABOVE OBSERVATIONS ARE NON NWS ARE NOT QUALITY
       CONTROLLED AND MAY MIS-REPORT RAIN FOR SNOW...
$$

  *****  WEATHER ACROSS NORTHERN MINNESOTA  *****

CITY           SKY/WX    TMP DP  RH WIND       PRES   REMARKS
FLAG ISLAND    NOT AVBL
WARROAD        TSTM      63  59  88 N6        29.84F
ROSEAU         RAIN      64  59  82 E20G28    29.73F
HALLOCK        MOCLDY    66  63  88 SE7       29.75S
THF RVR FALLS  CLOUDY    64  63  94 SE12      29.82F THUNDER
HALSTAD        NOT AVBL
FOSSTON        CLOUDY    66  61  82 N9G21     29.90R
BAUDETTE       RAIN      65  60  84 MISG      29.87R
WASKISH        CLOUDY    64  63  94 CALM      29.86R
CROOKSTON      LGT RAIN  66  64  94 E7        29.81S
$$
  *****  WEATHER ACROSS CENTRAL AND WEST MINNESOTA  *****

CITY           SKY/WX    TMP DP  RH WIND       PRES   REMARKS
BEMIDJI        MOCLDY    69  64  82 S8        29.85S
PARK RAPIDS    MOCLDY    68  63  84 S6        29.87R HAZE
WADENA         PTCLDY    64  63  94 CALM      29.87R FOG
DETROIT LAKES  MOCLDY    70  64  83 SE8       29.85S
MOORHEAD       CLOUDY    72  64  78 SE9       29.78F
FERGUS FALLS   MOCLDY    70  64  83 SE9       29.82F
ELBOW LAKE     FAIR      68  64  88 S9        29.84S
MORRIS MN      PTCLDY    68  64  88 SE8       29.82F FOG
STAPLES        PTCLDY    66  63  88 S6        29.89R FOG
WHEATON        MOCLDY    64  63  94 SE9       29.81F
$$
  *****  WEATHER ELSEWHERE ACROSS MINNESOTA  *****

CITY           SKY/WX    TMP DP  RH WIND       PRES   REMARKS
DULUTH         PTCLDY    57  53  86 SE6       29.92S
INTRNTL FALLS  CLOUDY    65  60  84 SW5       29.82S
ELY            MOCLDY    63  54  72 S3        29.91R
CLOQUET        FOG       57  55  94 CALM      29.93R VSB 1/4
BRAINERD       PTCLDY    65  62  90 S6        29.89S FOG
HIBBING        PTCLDY    56  54  93 CALM      29.91R
ALEXANDRIA     PTCLDY    69  63  81 S8        29.88S
SAINT CLOUD    CLEAR     66  62  87 S7        29.90R
MINNEAPOLIS    CLEAR     70  60  70 S7        29.93S
$$

  *****  WEATHER ACROSS SOUTH DAKOTA  *****

CITY           SKY/WX    TMP DP  RH WIND       PRES   REMARKS
SIOUX FALLS    CLOUDY    70  62  76 S14       29.86F
BROOKINGS      CLOUDY    70  61  73 S13G18    29.86F
WATERTOWN      CLOUDY    70  64  81 S10       29.82F
HURON          LGT RAIN  70  67  90 SE12      29.77F
SISSETON         N/A     73  65  75 SW15      29.77F
ABERDEEN       TSTM      67  62  84 MISG      29.74F
MITCHELL       MOCLDY    72  65  78 SE15G21   29.79F
PIERRE         CLEAR     71  67  87 SE8       29.72F
MOBRIDGE       CLEAR     72  71  97 SE7       29.69F
RAPID CITY     CLEAR     69  62  78 SW12      29.81F
$$

  *****  SOME WEATHER IN NEARBY STATES *****

CITY           SKY/WX    TMP DP  RH WIND       PRES   REMARKS
GLASGOW MT     TSTM      61  52  72 NW21      29.94R
GREAT FALLS MT CLOUDY    59  52  77 N13       30.07R
CHEYENNE WY    MOCLDY    65  52  62 CALM      30.03S
SCOTTSBLUFF NE MOCLDY    67  62  84 E9        29.87S
OMAHA NE       MOCLDY    69  62  78 S9        29.93F
DES MOINES IA  PTCLDY    66  59  78 S6        29.99S
DAVENPORT IA   CLEAR     62  59  90 S3        30.05R FOG
CHICAGO IL     PTCLDY    63  57  81 CALM      30.05R SMOKE
EAU CLAIRE WI  CLEAR     67  62  84 S8        29.95F
LA CROSSE WI   CLEAR     68  65  90 S7        29.99F
$$

  *****  SOME NATIONAL WEATHER *****

CITY           SKY/WX    TMP DP  RH WIND       PRES   REMARKS
LA GUARDIA NY  MOCLDY    70  62  76 CALM      30.04R
RALEIGH NC     MOCLDY    71  68  90 SW3       30.06R
ATLANTA GA     CLOUDY    69  66  90 SW8       30.09S
NEW ORLEANS LA MOCLDY    80  73  79 SE6       30.06S
OKLAHOMA CITY  PTCLDY    73  71  93 S7        29.96F
ALBUQUERQUE NM MOCLDY    69  58  67 S5        30.13F
SALT LAKE CITY CLOUDY    79  58  48 SE6       29.94S
LOS ANGELES CA CLOUDY    63  59  87 VRB3      29.94F
BOISE ID       MOCLDY    80  42  25 SE9       29.80R
SEATTLE WA     CLEAR     74  46  36 N6        29.81R
$$

*** WEATHER ACROSS MANITOBA...SASKATCHEWAN AND ONTARIO ***
                ***ONTARIO***

CITY           SKY/WX    TMP DP  RH WIND       PRES   REMARKS
GERALDTON      PTCLDY    52  48  87 S7        29.90F
THUNDER BAY    CLEAR     50  50 100 CALM      29.92S
SIOUX LOOKOUT  CLOUDY    66  59  77 W6        29.78R
TORONTO        CLEAR     61  54  77 W9        30.06R
BIG TROUT LK   CLOUDY    63  61  94 SW9       29.60R
PICKLE LAKE    NOT AVBL
DRYDEN         MOCLDY    61  61 100 W3        29.79R
KENORA         CLOUDY    63  63 100 S5        29.78R FOG
$$
                *** MANITOBA***

CITY           SKY/WX    TMP DP  RH WIND       PRES   REMARKS
BRANDON        CLEAR     57  55  94 CALM      29.79  FOG
DAUPHIN        CLOUDY    55  52  88 SW6       29.80S FOG
ISLAND LAKE    CLOUDY    59  57  94 SW6       29.66F
PILOT MOUND      N/A     59  57  94 SW2         N/A
THE PAS        SMOKE     59  54  82 W13       29.75F VSB 3/4
THOMPSON       PTCLDY    46  45  93 NW6       29.68F
WINNIPEG       PTCLDY    61  61 100 S2        29.76S
LYNN LAKE      LGT RAIN  43  41  93 N8        29.79S FOG
CHURCHILL      LGT RAIN  41  41 100 E32G44    29.65F FOG
$$
                ***SASKATCHEWAN***

CITY           SKY/WX    TMP DP  RH WIND       PRES   REMARKS
ESTEVAN        CLOUDY    59  57  94 NE3       29.82R
KINDERSLEY     CLOUDY    55  50  82 NW8       30.00R
LLOYDMINSTER   CLOUDY    54  48  82 NW8       29.99R
PRINCE ALBERT  PTCLDY    48  45  87 NW6       29.90R
REGINA         CLOUDY    59  57  94 NW5       29.89R FOG
YORKTON        CLOUDY    55  54  94 W6        29.84S FOG


USA.gov is the U.S. government's official web portal to all federal, state and local government web resources and services.